星链-37077(STARLINK-37077)

导读 | 豆包AI

STARLINK-37077(NORAD编号68169)是美国太空探索技术公司(SpaceX)星链计划的低轨卫星,于2024年12月8日发射,运行在近地轨道,近地点约355公里、远地点约357公里,轨道倾角43度,属于Starlink V1.0平台,旨在为全球提供高速卫星互联网服务。 2025年12月,该卫星出现异常,轨道高度骤降4000米,推测因内部故障发生爆炸,产生数十块碎片后与地面失联。目前卫星仍处于翻滚状态,预计会在几周内再入大气层烧毁,SpaceX正联合相关机构监测碎片风险。

基本信息
目录编号:
68169
目录名称:
STARLINK-37077
国际标识:
2026-050C
轨道中心:
EARTH
卫星名称:
星链-37077
卫星全名:
星链-37077(STARLINK-37077)
卫星状态:
在轨 (已飞行72 天)
发射日期:
2026-03-14 UTC
国别 :
美国 (US)
星等 :
--
轨道信息
数据来源 国际轨道数据
星历时间: 2026-05-24T03:07:09+0800
1天前
查看轨道信息
半长轴: 6827.687km
偏心率: 0.0001137
轨道倾角: 53.159°
近地点辐角 93.657°
升交点赤经 277.803°
平近点角 266.456°
近地点: 448.773km
远地点: 450.327km
周期: 93.577分钟
每日圈数: 15.388362
详细信息
固有亮度:
5
最大亮度:
2.5
卫星平台:
Starlink V1.0
覆盖范围:
全球
运营商:
太空探索技术公司
运营商所在国:
美国
制造商(研发单位):
太空探索技术公司
制造商所在国:
美国
使用方式:
暂无
卫星简介
Starlink 计划是 SpaceX 推出的全球卫星互联网项目,通过发射低轨道卫星,为全球尤其是偏远地区提供高速、低延迟的互联网服务。自 2019 年起,Starlink 已部署数千颗卫星,旨在缩小全球数字鸿沟,推动互联网普及。该项目还为军事、航空等行业提供通信支持,带来广泛经济效益。
2D轨道图
3D轨道图
轨道高度分析图
轨道倾角分析图
轨道综合分析图
查看轨道综合分析图